Regional Weather Roundup
Issued by NWS Charleston, SC

Current Version | Previous Version | Graphics & Text | Print | Product List | Glossary On
Versions: 1 2 3 4 5 6 7 8 9 10 11 12 13 14 15 16 17 18 19 20 21 22 23 24 25 26 27 28 29 30 31 32 33 34 35 36 37 38 39 40 41 42 43 44 45 46 47 48 49 50
899
ASUS42 KCHS 230412
RWRCHS

REGIONAL WEATHER ROUNDUP
NATIONAL WEATHER SERVICE CHARLESTON SC
1100 PM EST SUN JAN 22 2017

NOTE: "FAIR" INDICATES FEW OR NO CLOUDS BELOW 12,000 FEET WITH NO
SIGNIFICANT WEATHER AND/OR OBSTRUCTIONS TO VISIBILITY.

NOT ALL STATIONS ARE QUALITY CONTROLLED. USE DATA WITH CAUTION...
ESPECIALLY DEWPOINT OBSERVATIONS.

SCZ027-030-031-034>040-042>050-230500-
...SOUTHEAST SOUTH CAROLINA...

CITY           SKY/WX    TMP DP  RH WIND       PRES   REMARKS
N CHARLESTON   MOCLDY    64  63  96 SW5       29.29F
WATERFRONT PRK   N/A     64  63  96 S12       29.29F
MOUNT PLEASANT MOCLDY    64  64 100 SE6       29.30F
JOHNS ISLAND   MOCLDY    64  63  94 S5        29.30F
PINOPOLIS        N/A     63  63 100 S5        29.21F
MONCKS CORNER  CLOUDY    63  61  94 SW14G20   29.29F
SUMMERVILLE    MOCLDY   N/A N/A N/A SE5       29.29F
BEAUFORT MCAS  PTCLDY    64  60  87 SW17G28   29.33R
BEAUFORT ARPT  FAIR      63  61  94 SW18G25   29.32R
HILTON HEAD IS PTCLDY    64  63  94 SW16G26   29.35R
WALTERBORO     MOCLDY    63  61  94 SW14G20   29.30S
ALLENDALE      CLOUDY    61  57  88 SW12G23   29.30R

...SOUTHERN MIDLANDS AND PEE DEE...

CITY           SKY/WX    TMP DP  RH WIND       PRES   REMARKS
GEORGETOWN     LGT RAIN  61  61 100 SE9       29.34F
KINGSTREE      CLOUDY    61  59  94 E15       29.30F
ORANGEBURG     LGT RAIN  63  60  90 S17G26    29.26F
BARNWELL       MOCLDY    63  61  94 SW16      29.28F
AIKEN          CLOUDY    57  55  94 SE7       29.29F
MANNING        CLOUDY    61  52  72 SE5       29.28F
COLUMBIA       HVY RAIN  61  58  90 CALM      29.25S FOG
SUMTER         LGT RAIN  60  58  92 E12G18    29.25F
FLORENCE       CLOUDY    61  60  97 E16       29.32F
MYRTLE BEACH   MOCLDY    61  57  88 E12       29.36F
N MYRTLE BEACH LGT RAIN  61  60  97 E14G22    29.32F

$$

GAZ063-065-086>088-099>101-113>116-118-119-134>141-150-230500-
...SOUTHEAST GEORGIA...

CITY           SKY/WX    TMP DP  RH WIND       PRES   REMARKS
SAVANNAH ARPT  PTCLDY    60  51  72 W17       29.39R
HUNTER AAF     CLEAR     60  57  90 W16       29.37R
FORT STEWART   CLEAR     58  50  74 SW7       29.38R
STATESBORO     PTCLDY    58  54  87 W8        29.38R
SYLVANIA       CLEAR    N/A N/A N/A W7        29.37R
CLAXTON        FAIR     N/A N/A N/A SW7       29.39R

...CSRA...CENTRAL AND FAR SOUTHEAST GEORGIA...

CITY           SKY/WX    TMP DP  RH WIND       PRES   REMARKS
THOMSON        PTCLDY    56  53  87 W9G16     29.36R
AUGUSTA-BUSH   PTCLDY    59  52  77 SW14G23   29.30R
AUGUSTA-DANIEL CLOUDY    59  52  77 SW9G20    29.30R
SWAINSBORO     MOCLDY    55  52  88 SW5       29.38S
VIDALIA        CLEAR     57  54  88 W9        29.40R
EASTMAN        FAIR      57  40  52 SW5       29.41S
HAZLEHURST     FAIR      57  53  86 SW5       29.39S
ALMA           CLOUDY    58  50  75 SW7       29.41S
WAYCROSS       CLOUDY    61  55  81 SW6       29.42F
JESUP          FAIR      59  50  72 W5        29.41F
BAXLEY         MOCLDY    59  55  88 SW5       29.41R
BRUNSWICK      CLEAR     61  52  72 SW13G18   29.43F
SAINT SIMONS   CLEAR     61  48  62 W10       29.42R

$$

SCZ027-028-034-036>038-045-046-048>050-GAZ119-141-230500-
...LAKE AND SUPPLEMENTAL COASTAL OBSERVATIONS...

STATION/POSITION TIME  TEMP    WIND        PRES    WAVE   SWELL
                       AIR SEA DIR/SP/G            HT/PER HT/PER/DIR
                 (UTC) (F)     (DEG/KT/KT) (MB)    (FT/S) (FT/S/D)
WINYAH BAY       0245   61     100/  9      994.0
LAKE MURRAY      0320   60     100/ 12/ 15  991.2F
ACE BASIN NERRS  0245   65     160/  3      993.0
FORT PULASKI     0336   64 59  260/ 15/ 22  994.1R
SAPELO ISLAND    0300   64     270/ 23      995.0

$$

ANZ835-935-AMZ111-154-330-350-352-354-370-450-454-472-230500-
...C-MAN AND BUOY OBSERVATIONS...

STATION/POSITION TIME  TEMP    WIND        PRES    WAVE   SWELL
                       AIR SEA DIR/SP/G            HT/PER HT/PER/DIR
                 (UTC) (F)     (DEG/KT/KT) (MB)    (FT/S) (FT/S/D)
BUOY 41004       0250   70 66  120/ 29/ 39  990.6    6/ 8   3/170/ 8
BUOY 41008       0350   63 60  250/ 21/ 25  994.9R   4/ 6   2/110/ 8
FOLLY BEACH CMAN 0400   63     180/ 12/ 14  992.4F
CAPERS NEARSHORE 0308   63 57  150/ 16/ 23  992.6F
FRIPP NEARSHORE  0308   64 58  170/ 19/ 27  992.6F


STATION/POSITION TIME  TEMP    WIND        PRES    WAVE   SWELL
                       AIR SEA DIR/SP/G            HT/PER HT/PER/DIR
                 (UTC) (F)     (DEG/KT/KT) (MB)    (FT/S) (FT/S/D)
5E ST. MARYS GA  0330      63                N/A     4/ 6
FRYING PAN BUOY  0350   70 66  130/ 23/ 27  994.4F   8/ 8   5/190/ 8
BUOY 41025       0350   63 71   50/ 12/ 14  998.8F   4/13   3/ 80/13
CAPE LOOKOUT NC  0400   64      40/  9/ 10  998.1R
BUOY 41002       0350   69 71   50/  8/ 10 1002.4F   8/ 8   8/210/ 8
BUOY 41010       NOT AVBL
ST AUGUSTINE FL  0400   64 66  260/  6/  8  998.3F


$$




USA.gov is the U.S. government's official web portal to all federal, state and local government web resources and services.